Time,TemperatureF,DewpointF,PressureIn,WindDirection,WindDirectionDegrees,WindSpeedMPH,WindSpeedGustMPH,Humidity,HourlyPrecipIn,Conditions,Clouds,dailyrainin,SoftwareType,DateUTC
2013-09-04 00:11:00,79.0,55.0,-100.00,NNE,22,-999.0,6.0,44,-99.99,,,-99.99,,2013-09-04 07:11:00,
2013-09-04 00:22:00,79.0,55.0,-100.00,NNE,22,-999.0,6.0,44,-99.99,,,-99.99,,2013-09-04 07:22:00,
2013-09-04 00:42:00,78.0,56.0,-100.00,North,1,-999.0,-999.0,46,-99.99,,,-99.99,,2013-09-04 07:42:00,
2013-09-04 00:52:00,78.0,56.0,-100.00,North,1,-999.0,6.0,46,-99.99,,,-99.99,,2013-09-04 07:52:00,
2013-09-04 01:12:00,79.0,56.0,-100.00,NNE,19,-999.0,6.0,45,-99.99,,,-99.99,,2013-09-04 08:12:00,
2013-09-04 01:22:00,79.0,56.0,-100.00,NNE,19,-999.0,6.0,45,-99.99,,,-99.99,,2013-09-04 08:22:00,
2013-09-04 01:43:00,78.0,56.0,-100.00,North,-999,-999.0,6.0,46,-99.99,,,-99.99,,2013-09-04 08:43:00,
2013-09-04 01:52:00,78.0,56.0,-100.00,North,-999,-999.0,6.0,46,-99.99,,,-99.99,,2013-09-04 08:52:00,
2013-09-04 02:11:00,79.0,56.0,-100.00,North,11,-999.0,6.0,45,-99.99,,,-99.99,,2013-09-04 09:11:00,
2013-09-04 02:22:00,79.0,56.0,-100.00,North,11,-999.0,5.0,45,-99.99,,,-99.99,,2013-09-04 09:22:00,
2013-09-04 02:43:00,78.0,55.0,-100.00,NNE,25,-999.0,5.0,45,-99.99,,,-99.99,,2013-09-04 09:43:00,
2013-09-04 02:53:00,78.0,55.0,-100.00,NNE,25,-999.0,5.0,45,-99.99,,,-99.99,,2013-09-04 09:53:00,
2013-09-04 03:12:00,77.0,55.0,-100.00,NNE,25,-999.0,5.0,46,-99.99,,,-99.99,,2013-09-04 10:12:00,
2013-09-04 03:23:00,77.0,55.0,-100.00,NNE,25,-999.0,5.0,46,-99.99,,,-99.99,,2013-09-04 10:23:00,
2013-09-04 03:42:00,78.0,54.0,-100.00,NNE,15,-999.0,5.0,44,-99.99,,,-99.99,,2013-09-04 10:42:00,
2013-09-04 03:52:00,78.0,54.0,-100.00,NNE,15,-999.0,6.0,44,-99.99,,,-99.99,,2013-09-04 10:52:00,
2013-09-04 04:12:00,77.0,54.0,-100.00,NNE,24,-999.0,6.0,45,-99.99,,,-99.99,,2013-09-04 11:12:00,
2013-09-04 04:22:00,77.0,54.0,-100.00,NNE,24,-999.0,6.0,45,-99.99,,,-99.99,,2013-09-04 11:22:00,
2013-09-04 04:41:00,78.0,54.0,-100.00,North,9,-999.0,5.0,44,-99.99,,,-99.99,,2013-09-04 11:41:00,
2013-09-04 04:52:00,78.0,54.0,-100.00,North,9,-999.0,5.0,44,-99.99,,,-99.99,,2013-09-04 11:52:00,
2013-09-04 05:11:00,77.0,54.0,-100.00,NNE,28,-999.0,-999.0,45,-99.99,,,-99.99,,2013-09-04 12:11:00,
2013-09-04 05:21:00,77.0,54.0,-100.00,NNE,28,-999.0,5.0,45,-99.99,,,-99.99,,2013-09-04 12:21:00,
2013-09-04 05:42:00,77.0,54.0,-100.00,NNE,20,-999.0,5.0,45,-99.99,,,-99.99,,2013-09-04 12:42:00,
2013-09-04 05:52:00,77.0,54.0,-100.00,NNE,20,-999.0,5.0,45,-99.99,,,-99.99,,2013-09-04 12:52:00,
2013-09-04 06:12:00,76.0,-99.9,-100.00,NNE,21,-999.0,-999.0,-999,-99.99,,,-99.99,,2013-09-04 13:12:00,
2013-09-04 06:22:00,76.0,-99.9,-100.00,NNE,21,-999.0,4.0,0,-99.99,,,-99.99,,2013-09-04 13:22:00,
2013-09-04 06:42:00,77.0,54.0,-100.00,North,8,-999.0,4.0,45,-99.99,,,-99.99,,2013-09-04 13:42:00,
2013-09-04 06:52:00,77.0,54.0,-100.00,North,8,-999.0,4.0,45,-99.99,,,-99.99,,2013-09-04 13:52:00,
2013-09-04 07:11:00,77.0,54.0,-100.00,NNE,16,-999.0,5.0,45,-99.99,,,-99.99,,2013-09-04 14:11:00,
2013-09-04 07:21:00,77.0,54.0,-100.00,NNE,16,-999.0,5.0,45,-99.99,,,-99.99,,2013-09-04 14:21:00,
2013-09-04 07:42:00,78.0,55.0,-100.00,NNE,19,-999.0,5.0,45,-99.99,,,-99.99,,2013-09-04 14:42:00,
2013-09-04 07:52:00,78.0,55.0,-100.00,NNE,19,-999.0,5.0,45,-99.99,,,-99.99,,2013-09-04 14:52:00,
2013-09-04 08:12:00,80.0,55.0,-100.00,NNE,25,-999.0,2.0,43,-99.99,,,-99.99,,2013-09-04 15:12:00,
2013-09-04 08:22:00,80.0,55.0,-100.00,NNE,25,-999.0,2.0,43,-99.99,,,-99.99,,2013-09-04 15:22:00,
2013-09-04 08:43:00,83.0,56.0,-100.00,NNE,25,-999.0,0.0,40,-99.99,,,-99.99,,2013-09-04 15:43:00,
2013-09-04 08:53:00,83.0,56.0,-100.00,NNE,25,-999.0,0.0,40,-99.99,,,-99.99,,2013-09-04 15:53:00,
2013-09-04 09:43:00,91.0,58.0,-100.00,SSE,162,-999.0,3.0,33,-99.99,,,-99.99,,2013-09-04 16:43:00,
2013-09-04 11:12:00,89.0,61.0,-100.00,South,186,-999.0,-999.0,40,-99.99,,,-99.99,,2013-09-04 18:12:00,
2013-09-04 11:21:00,89.0,61.0,-100.00,South,186,-999.0,6.0,40,-99.99,,,-99.99,,2013-09-04 18:21:00,
2013-09-04 11:42:00,93.0,63.0,-100.00,WSW,255,-999.0,6.0,37,-99.99,,,-99.99,,2013-09-04 18:42:00,
2013-09-04 11:52:00,93.0,63.0,-100.00,WSW,255,-999.0,7.0,37,-99.99,,,-99.99,,2013-09-04 18:52:00,
2013-09-04 12:11:00,95.0,63.0,-100.00,WSW,241,-999.0,7.0,35,-99.99,,,-99.99,,2013-09-04 19:11:00,
2013-09-04 12:42:00,95.0,62.0,-100.00,South,173,-999.0,7.0,34,-99.99,,,-99.99,,2013-09-04 19:42:00,
2013-09-04 13:43:00,93.0,62.0,-100.00,WSW,238,-999.0,-999.0,36,-99.99,,,-99.99,,2013-09-04 20:43:00,
2013-09-04 13:53:00,93.0,62.0,-100.00,WSW,238,-999.0,9.0,36,-99.99,,,-99.99,,2013-09-04 20:53:00,
2013-09-04 18:42:00,88.0,57.0,-100.00,WSW,239,-999.0,6.0,35,-99.99,,,-99.99,,2013-09-05 01:42:00,
2013-09-04 18:52:00,88.0,57.0,-100.00,WSW,239,-999.0,6.0,35,-99.99,,,-99.99,,2013-09-05 01:52:00,
2013-09-04 19:11:00,85.0,57.0,-100.00,WSW,255,-999.0,6.0,38,-99.99,,,-99.99,,2013-09-05 02:11:00,
2013-09-04 19:22:00,85.0,57.0,-100.00,WSW,255,-999.0,0.0,38,-99.99,,,-99.99,,2013-09-05 02:22:00,
2013-09-04 19:52:00,81.0,54.0,-100.00,WSW,255,-999.0,0.0,40,-99.99,,,-99.99,,2013-09-05 02:52:00,
2013-09-04 20:11:00,80.0,55.0,-100.00,West,263,-999.0,0.0,43,-99.99,,,-99.99,,2013-09-05 03:11:00,
2013-09-04 20:22:00,80.0,55.0,-100.00,West,263,-999.0,0.0,43,-99.99,,,-99.99,,2013-09-05 03:22:00,
2013-09-04 21:13:00,81.0,54.0,-100.00,West,278,-999.0,8.0,39,-99.99,,,-99.99,,2013-09-05 04:13:00,
2013-09-04 22:52:00,85.0,52.0,-100.00,NE,36,-999.0,9.0,32,-99.99,,,0.00,,2013-09-05 05:52:00,